STARLINK-11707 [DTC]

Last updated on Thu Jul 03 2025 00:02:06 GMT+0000 (Coordinated Universal Time)

1 64328U 25124M 25183.58335648 -.00973342 00000+0 -60234-2 0 9994 2 64328 43.0026 96.8833 0001653 272.5452 245.8447 15.78719160 4620
UTC large
Height (km)
Speed (km/s)
/
Latitude / Longitude
Inclination (degrees)
Orbital Period (minutes)
Azimuth
Elevation
Range (km)
Doppler Factor

Next 0 passes for location: London (51.5072 / 0.1276)

Sorry there are no passes over London.